Stations météo

réclame
Mon MeteoGroup
Mont-De-Marsan, France (7607): Température de l'air & dewpoint: 11.01.2018 01:00:00 - 17.01.2018 01:00:00 (CET)Mont-De-Marsan, France (7607): Température de l'air 5cm: 11.01.2018 01:00:00 - 17.01.2018 01:00:00 (CET)Mont-De-Marsan, France (7607): Température de l'air -20cm & Température de l'air -100cm: 11.01.2018 01:00:00 - 17.01.2018 01:00:00 (CET)Mont-De-Marsan, France (7607): Vitesse du vent & gusts: 11.01.2018 01:00:00 - 17.01.2018 01:00:00 (CET)Mont-De-Marsan, France (7607): Direction du vent: 11.01.2018 01:00:00 - 17.01.2018 01:00:00 (CET)Mont-De-Marsan, France (7607): reduced air pressure: 11.01.2018 01:00:00 - 17.01.2018 01:00:00 (CET)Mont-De-Marsan, France (7607): visibility: 11.01.2018 01:00:00 - 17.01.2018 01:00:00 (CET)Mont-De-Marsan, France (7607): Ensoleillement: 11.01.2018 01:00:00 - 17.01.2018 01:00:00 (CET)Mont-De-Marsan, France (7607): Quantités de précipitations: 11.01.2018 01:00:00 - 17.01.2018 01:00:00 (CET)
Date & Time tt [°C] td [°C] tt 5cm [°C] tt -20cm [°C] tt -100cm [°C] ff [km/h] ff [knt] fx [km/h] fx [knt] dd ppp [hPa] vv [km] sd [min] rr [mm]
17.01.2018 01:00:00 11,9 10,1 10,7 27,3 10,3 35 19 62 33 W 1019,8 10 0 0,0
17.01.2018 00:00:00 12,9 10,8 11,4 28,0 10,3 39 21 66 36 W 1019,4 10 0 0,2
16.01.2018 23:00:00 11,7 10,8 11,4 28,1 10,3 37 20 68 37 W 1019,5 6 0 0,6
16.01.2018 22:00:00 12,9 11,0 11,9 28,0 10,3 37 20 61 33 W 1019,6 10 0 0,2
16.01.2018 21:00:00 12,8 11,4 11,9 27,8 10,3 29 16 57 31 W 1019,7 10 0 0,0
16.01.2018 20:00:00 12,8 11,4 11,8 27,2 10,3 34 18 52 28 W 1019,6 10 0 0,2
16.01.2018 19:00:00 12,8 11,2 11,9 27,7 10,3 35 19 59 32 W 1019,4 10 0 0,0
16.01.2018 18:00:00 12,6 11,5 12,0 27,3 10,3 24 13 50 27 W 1019,7 10 0 0,2
16.01.2018 17:00:00 12,5 11,7 12,2 26,6 10,3 24 13 46 25 WSW 1019,9 8 0 0,6
16.01.2018 16:00:00 12,7 11,9 12,4 27,3 10,2 24 13 57 31 WSW 1020,1 6 0 1,0
16.01.2018 15:00:00 12,8 11,9 12,6 27,5 10,3 29 16 53 29 W 1020,6 3,8 1 0,4
16.01.2018 14:00:00 12,7 11,9 12,5 27,1 10,3 26 14 41 22 W 1021,3 8 0 0,2
16.01.2018 13:00:00 13,0 11,9 12,2 26,8 10,3 24 13 40 22 W 1022,0 10 0 0,4
16.01.2018 12:00:00 12,3 11,4 12,1 26,5 10,3 22 12 40 21 W 1022,9 10 0 0,8
16.01.2018 11:00:00 12,2 11,7 11,8 26,6 10,3 21 11 37 20 W 1022,6 10 0 2,4
16.01.2018 10:00:00 11,9 11,3 11,3 26,5 10,3 22 12 44 24 W 1021,9 2,9 0 0,6
16.01.2018 09:00:00 11,9 10,6 11,3 26,4 10,3 29 16 52 28 W 1021,4 10 0 0,2
16.01.2018 08:00:00 12,2 11,1 11,5 26,8 10,2 29 16 47 25 W 1020,3 10 0 1,0
16.01.2018 07:00:00 12,0 11,1 11,1 26,3 10,3 26 14 47 25 W 1019,3 10 0 0,4
16.01.2018 06:00:00 11,5 10,7 10,7 26,4 10,3 18 10 39 21 WSW 1019,2 10 0 0,4
16.01.2018 05:00:00 11,1 10,3 10,4 26,8 10,3 18 10 39 21 WSW 1018,9 10 0 0,4
16.01.2018 04:00:00 10,6 10,1 10,3 26,6 10,3 19 10 38 20 WSW 1019,3 6 0 1,2
16.01.2018 03:00:00 10,7 10,2 9,9 26,4 10,3 18 10 35 19 WSW 1019,3 4,9 0 1,4
16.01.2018 02:00:00 10,2 9,6 9,6 26,9 10,3 18 10 40 22 SW 1019,5 5 0 0,2
16.01.2018 01:00:00 10,0 9,1 9,1 26,6 10,3 21 11 45 24 WSW 1019,9 9 0 0,2
16.01.2018 00:00:00 9,7 8,3 8,4 26,8 10,3 18 10 35 19 WSW 1019,9 10 0 0,0
15.01.2018 23:00:00 9,2 7,3 8,4 26,0 10,3 18 10 45 24 SW 1020,3 10 0 0,0
15.01.2018 22:00:00 10,8 5,5 10,3 26,1 10,3 18 10 48 26 WSW 1020,0 10 0 0,0
15.01.2018 21:00:00 11,1 4,5 10,1 26,9 10,3 22 12 60 33 WSW 1019,8 10 0 0,0
15.01.2018 20:00:00 10,9 3,7 10,0 27,0 10,3 21 11 42 23 W 1020,0 10 0 0,0
15.01.2018 19:00:00 10,8 4,5 8,7 26,7 10,3 21 11 49 26 WSW 1019,8 41 0 0,0
15.01.2018 18:00:00 10,9 5,2 10,1 26,8 10,3 11 6 23 12 SW 1019,8 10 0 0,0
15.01.2018 17:00:00 11,1 5,6 11,0 26,8 10,3 9 5 22 12 SW 1020,0 10 1 0,0
15.01.2018 16:00:00 11,2 6,1 11,1 26,3 10,3 11 6 30 16 WSW 1020,4 10 0 0,0
15.01.2018 15:00:00 11,5 6,8 11,9 26,4 10,3 16 9 35 19 WSW 1020,7 10 4 0,0
15.01.2018 14:00:00 11,4 7,1 11,9 26,6 10,3 16 9 35 19 WSW 1021,7 10 19 0,0
15.01.2018 13:00:00 10,8 7,5 11,1 25,6 10,3 15 8 27 15 SW 1022,2 10 15 0,0
15.01.2018 12:00:00 9,5 7,3 8,8 25,3 10,3 13 7 26 14 SW 1023,5 10 9 0,0
15.01.2018 11:00:00 8,5 7,0 7,5 25,3 10,3 15 8 23 13 SW 1024,5 10 6 0,0
15.01.2018 10:00:00 7,7 6,5 6,8 25,4 10,3 11 6 18 10 SW 1024,2 10 0 0,0
15.01.2018 09:00:00 7,1 6,4 5,6 25,6 10,3 9 5 22 12 SW 1023,7 10 0 0,0
15.01.2018 08:00:00 6,7 5,8 5,8 25,9 10,4 13 7 23 12 SW 1023,0 10 0 0,0
15.01.2018 07:00:00 6,9 6,0 5,4 25,9 10,3 9 5 21 11 SW 1022,7 10 0 0,0
15.01.2018 06:00:00 6,1 5,2 4,8 25,8 10,3 12 7 21 11 SSW 1022,5 59 0 0,0
15.01.2018 05:00:00 6,2 5,3 4,9 26,5 10,3 9 5 20 11 SW 1022,6 10 0 0,0
15.01.2018 04:00:00 6,3 5,3 4,9 26,7 10,4 10 5 17 9 SSW 1022,4 59 0 0,0
15.01.2018 03:00:00 6,4 5,3 5,0 26,7 10,3 5 3 19 11 - 1022,5 10 0 0,0
15.01.2018 02:00:00 6,4 5,3 4,0 26,3 10,4 9 5 19 10 SSW 1022,4 10 0 0,0
15.01.2018 01:00:00 6,2 5,5 4,4 26,4 10,4 8 4 14 8 SSW 1022,5 10 0 0,0
15.01.2018 00:00:00 6,9 6,0 6,0 25,8 10,4 6 3 16 9 SW 1022,4 59 0 0,0
14.01.2018 23:00:00 7,0 6,1 6,0 26,0 10,4 9 5 21 11 SW 1021,3 10 0 0,0
14.01.2018 22:00:00 7,2 6,1 6,5 26,3 10,4 9 5 17 9 SW 1020,9 10 0 0,0
14.01.2018 21:00:00 7,4 6,7 6,9 27,1 10,4 11 6 23 12 SSW 1020,4 10 0 0,2
14.01.2018 20:00:00 7,7 6,8 7,2 26,3 10,4 9 5 16 9 SSW 1019,9 10 0 0,0
14.01.2018 19:00:00 7,9 7,0 7,4 26,2 10,4 5 3 13 7 SSW 1018,9 10 0 0,0
14.01.2018 18:00:00 8,0 7,1 7,4 26,7 10,4 5 3 13 7 - 1018,3 10 0 0,0
14.01.2018 17:00:00 8,3 7,1 7,9 26,7 10,4 8 4 19 11 WSW 1017,7 10 0 0,0
14.01.2018 16:00:00 8,3 7,2 8,3 25,8 10,4 9 5 16 9 WSW 1017,0 31 0 0,2
14.01.2018 15:00:00 8,4 7,0 8,2 26,2 10,4 8 4 21 12 SW 1016,8 10 0 0,6
14.01.2018 14:00:00 9,0 7,1 9,5 27,3 10,4 13 7 25 14 SW 1016,4 10 0 0,0
14.01.2018 13:00:00 8,3 7,1 8,3 27,1 10,4 11 6 20 11 SW 1016,6 10 0 0,0
14.01.2018 12:00:00 7,5 6,8 7,1 27,1 10,4 9 5 17 9 SW 1016,8 10 0 0,0
14.01.2018 11:00:00 6,6 5,9 6,2 27,6 10,4 5 3 10 5 - 1016,9 10 0 0,2
14.01.2018 10:00:00 6,1 5,4 5,4 27,2 10,4 4 2 11 6 S 1016,2 10 0 0,0
14.01.2018 09:00:00 5,8 4,9 5,3 26,9 10,4 5 3 13 7 SSW 1015,7 10 0 0,2
14.01.2018 08:00:00 5,8 4,9 5,4 27,2 10,4 5 3 14 7 S 1015,4 10 0 0,9
14.01.2018 07:00:00 6,0 5,1 5,6 26,7 10,5 9 5 16 9 S 1015,1 10 0 2,8
14.01.2018 06:00:00 6,1 5,1 5,6 26,8 10,4 8 4 15 8 S 1015,2 10 0 2,6
14.01.2018 05:00:00 6,0 5,1 5,5 27,3 10,5 4 2 13 7 - 1015,3 10 0 0,4
14.01.2018 04:00:00 6,1 4,9 5,5 26,5 10,5 8 4 13 7 SW 1015,4 10 0 0,0
14.01.2018 03:00:00 6,3 4,8 5,2 26,8 10,5 3 2 9 5 SSW 1015,6 17 0 0,0
14.01.2018 02:00:00 6,0 4,5 4,8 27,4 10,5 4 2 16 9 - 1015,5 10 0 0,0
14.01.2018 01:00:00 5,3 4,6 4,8 27,2 10,5 9 5 16 8 W 1015,5 18 0 0,0
14.01.2018 00:00:00 5,5 4,1 4,8 27,7 10,5 0 0 6 3 N 1016,3 10 0 0,0
13.01.2018 23:00:00 5,3 4,1 4,2 27,1 10,5 2 1 6 4 - 1016,0 10 0 0,0
13.01.2018 22:00:00 5,2 3,7 3,4 27,2 10,5 0 0 6 3 N 1015,8 10 0 0,0
13.01.2018 21:00:00 5,5 3,7 2,9 27,6 10,5 0 0 10 5 N 1015,5 10 0 0,0
13.01.2018 20:00:00 6,1 3,6 4,3 27,4 10,5 5 3 9 5 ESE 1015,4 10 0 0,0
13.01.2018 19:00:00 6,5 3,6 4,3 27,7 10,5 5 3 13 7 - 1015,0 10 0 0,0
13.01.2018 18:00:00 6,0 3,3 4,7 28,1 10,5 8 4 14 7 E 1014,6 10 0 0,0
13.01.2018 17:00:00 6,6 3,7 6,0 27,7 10,6 8 4 11 6 E 1014,8 60 0 0,0
13.01.2018 16:00:00 7,9 3,2 8,0 27,7 10,5 9 5 13 7 ESE 1014,6 10 0 0,0
13.01.2018 15:00:00 8,0 3,3 8,0 28,4 10,6 8 4 14 8 ESE 1014,6 10 3 0,0
13.01.2018 14:00:00 7,5 3,2 7,8 28,0 10,6 9 5 19 11 E 1014,6 10 0 0,0
13.01.2018 13:00:00 7,3 3,2 7,8 27,5 10,6 12 6 19 10 ESE 1015,0 60 3 0,0
13.01.2018 12:00:00 6,9 4,0 6,6 28,0 10,6 9 5 13 7 E 1016,3 10 10 0,0
13.01.2018 11:00:00 5,2 2,7 5,1 27,7 10,6 2 1 13 7 - 1016,8 10 0 0,0
13.01.2018 10:00:00 4,4 3,1 2,2 27,6 10,6 4 2 16 9 E 1016,4 36 23 0,0
13.01.2018 09:00:00 3,2 2,5 2,1 27,0 10,6 9 5 15 8 E 1016,6 10 0 0,0
13.01.2018 08:00:00 3,5 2,8 2,6 27,7 10,6 8 4 16 9 E 1016,8 10 0 0,0
13.01.2018 07:00:00 3,9 3,3 3,5 27,7 10,6 13 7 25 13 E 1016,6 10 0 0,0
13.01.2018 06:00:00 4,2 3,6 4,0 27,3 10,6 15 8 29 15 E 1017,3 10 0 0,0
13.01.2018 05:00:00 4,3 3,9 4,0 27,5 10,6 15 8 23 13 E 1018,1 10 0 0,0
13.01.2018 04:00:00 4,3 4,0 4,1 27,3 10,6 11 6 22 12 E 1019,3 10 0 0,0
13.01.2018 03:00:00 4,5 4,4 4,4 27,2 10,6 13 7 21 12 ESE 1020,0 6 0 0,0
13.01.2018 02:00:00 4,7 4,6 4,6 27,6 10,7 8 4 19 10 ESE 1020,6 6 0 0,0
13.01.2018 01:00:00 4,7 4,6 4,3 27,4 10,7 8 5 16 9 ESE 1021,8 4,1 0 0,0
13.01.2018 00:00:00 4,2 4,1 1,8 26,9 10,7 9 5 16 9 ESE 1022,6 1,6 0 0,0
12.01.2018 23:00:00 3,0 2,7 1,0 26,9 10,7 9 5 13 7 E 1023,0 4,4 0 0,0
12.01.2018 22:00:00 3,0 2,7 0,8 27,0 10,7 9 5 15 8 E 1023,8 6 0 0,0
12.01.2018 21:00:00 4,1 3,7 0,3 27,3 10,7 11 6 16 8 ENE 1024,2 10 0 0,0
12.01.2018 20:00:00 3,9 3,3 -0,7 26,8 10,7 11 6 13 7 ENE 1024,2 10 0 0,0
12.01.2018 19:00:00 4,4 3,4 -0,6 25,7 10,7 2 1 6 4 NE 1024,1 10 0 0,0
12.01.2018 18:00:00 6,9 3,7 1,4 26,2 10,7 0 0 5 3 N 1024,0 10 17 0,0
12.01.2018 17:00:00 12,0 3,7 14,4 27,9 10,7 0 0 5 3 N 1024,0 10 60 0,0
12.01.2018 16:00:00 12,0 3,5 16,1 28,7 10,7 2 1 7 4 - 1024,0 10 60 0,0
12.01.2018 15:00:00 12,2 4,9 17,5 28,0 10,7 4 2 9 5 - 1024,2 10 60 0,0
12.01.2018 14:00:00 11,5 5,1 17,0 28,2 10,7 4 2 8 5 - 1024,9 10 60 0,0
12.01.2018 13:00:00 10,6 6,9 14,0 28,1 10,7 4 2 13 7 - 1025,4 10 60 0,0
12.01.2018 12:00:00 8,0 6,1 12,7 27,4 10,7 8 4 11 6 E 1026,2 10 60 0,0
12.01.2018 11:00:00 5,2 4,8 7,2 27,7 10,7 0 0 5 3 N 1026,5 10 60 0,0
12.01.2018 10:00:00 1,2 1,1 -2,5 26,5 10,7 0 0 8 4 N 1026,5 10 60 0,0
12.01.2018 09:00:00 -0,7 -1,0 -4,5 25,2 10,7 2 1 3 2 NE 1026,2 6 5 0,0
12.01.2018 08:00:00 -1,1 -1,4 -3,4 25,5 10,7 5 3 7 4 E 1025,9 9 0 0,0
12.01.2018 07:00:00 -1,0 -1,1 -5,0 25,5 10,7 2 1 6 4 E 1025,9 5 0 0,0
12.01.2018 06:00:00 -1,2 -1,3 -5,1 26,2 10,7 4 2 8 4 E 1026,0 0,8 0 0,0
12.01.2018 05:00:00 -1,2 -1,5 -5,1 26,2 10,7 0 0 2 1 N 1025,7 10 0 0,0
12.01.2018 04:00:00 -0,3 -0,4 -4,8 26,1 10,7 0 0 5 3 N 1025,5 5 0 0,0
12.01.2018 03:00:00 -0,7 -0,8 -3,9 26,8 10,8 4 2 6 3 E 1025,8 3,6 0 0,0
12.01.2018 02:00:00 -0,5 -0,8 -3,4 26,5 10,7 3 1 5 3 E 1025,3 0,4 0 0,0
12.01.2018 01:00:00 0,5 0,2 -3,4 26,6 10,8 0 0 5 3 N 1025,1 4,3 0 0,0
12.01.2018 00:00:00 0,4 0,1 -2,9 27,2 10,8 3 2 7 4 ENE 1024,8 1,5 0 0,0
11.01.2018 23:00:00 1,5 1,1 -2,6 27,3 10,8 0 0 5 3 N 1024,5 3,8 0 0,0
11.01.2018 22:00:00 3,1 2,5 -1,9 27,7 10,7 2 1 6 4 SE 1024,0 7 0 0,0
11.01.2018 21:00:00 5,0 4,4 -0,1 27,5 10,7 5 3 9 5 - 1023,3 10 0 0,0
11.01.2018 20:00:00 5,5 4,5 3,4 27,8 10,8 5 3 16 8 W 1022,4 10 0 0,0
11.01.2018 19:00:00 6,6 5,4 6,1 27,6 10,8 8 4 20 11 SW 1021,6 10 0 0,0
11.01.2018 18:00:00 6,6 5,1 5,6 27,6 10,8 8 4 18 10 SW 1020,7 60 0 0,0
11.01.2018 17:00:00 7,4 5,2 7,1 27,8 10,8 11 6 25 13 SW 1020,0 60 0 0,0
11.01.2018 16:00:00 7,9 5,5 8,0 27,6 10,8 11 6 29 15 WSW 1019,0 10 38 0,0
11.01.2018 15:00:00 8,5 6,1 8,5 27,6 10,8 16 9 31 17 WSW 1018,4 10 28 0,0
11.01.2018 14:00:00 8,1 6,2 8,0 27,7 10,8 16 9 34 19 SW 1018,1 10 7 0,0
11.01.2018 13:00:00 8,3 6,1 7,7 28,2 10,8 17 9 35 19 SW 1018,1 20 38 0,0
11.01.2018 12:00:00 7,2 5,3 7,2 27,8 10,8 21 11 36 19 SW 1018,5 10 2 0,0
11.01.2018 11:00:00 7,1 5,4 6,9 28,5 10,8 15 8 27 14 SW 1018,1 10 10 0,2
11.01.2018 10:00:00 6,3 5,1 4,7 27,9 10,8 16 9 32 17 SW 1017,6 10 18 0,2
11.01.2018 09:00:00 5,6 4,2 4,7 28,4 10,8 11 6 22 12 SW 1017,0 60 0 0,0
11.01.2018 08:00:00 5,8 4,4 5,3 28,7 10,8 11 6 36 19 WSW 1016,6 10 0 2,0
11.01.2018 07:00:00 6,3 4,9 5,5 28,3 10,8 18 10 44 24 WSW 1015,9 10 0 0,4
11.01.2018 06:00:00 7,0 5,6 5,5 28,5 10,8 13 7 25 14 SW 1015,3 10 0 0,0
11.01.2018 05:00:00 6,9 4,9 4,4 27,9 10,8 11 6 17 9 WSW 1014,9 20 0 0,0
11.01.2018 04:00:00 6,6 5,1 5,0 27,6 10,8 8 4 21 11 SSW 1015,3 10 0 0,0
11.01.2018 03:00:00 6,7 5,0 5,7 27,3 10,8 9 5 23 13 SSW 1015,2 10 0 0,8
11.01.2018 02:00:00 7,0 6,1 6,4 27,7 10,8 3 2 40 22 W 1015,2 16 0 1,0
11.01.2018 01:00:00 7,3 5,9 6,3 27,2 10,8 13 7 22 12 SW 1014,8 10 0 0,0

tt = Température de l'air
td = dewpoint
tt 5cm = Température de l'air 5cm
tt -20cm = Température de l'air -20cm
tt -100cm = Température de l'air -100cm
ff = Vitesse du vent
fx = gusts
dd = Direction du vent
ppp = reduced air pressure
vv = visibility
sd = Ensoleillement
rr = Quantités de précipitations

stations d'obs. à proximité